User: anonymous   Login
Location: Unspecified
(0.0000°N, 0.0000°E)
Time: 03:16:07
(UTC+00:00)
Language:

STARLINK-2745 - Orbit

View from above orbital plane
View from above orbital plane
View from above satellite
View from above satellite

Ground track
Ground track

The orbit is defined by the following mean orbital elements,

1 48671U          26145.21059830 +.00000000 +00000-0 -20051-4 0 00008
2 48671  53.1590 118.5295 0001039  75.2730 284.8386 15.29362520    03
Epoch (UTC): 25 May 2026 05:03:15
Eccentricity: 0.0001039
inclination: 53.1590°
perigee height: 477 km
apogee height: 478 km
right ascension of ascending node: 118.5295°
argument of perigee: 75.2730°
revolutions per day: 15.29362520
mean anomaly at epoch: 284.8386°

The dashed part of the orbit path shows where the satellite is in the earth's shadow,  

DLR